Regional Weather Roundup
Issued by NWS State College, PA

Home | Current Version | Previous Version | Graphics & Text | Print | Product List | Glossary Off
Versions: 1 2 3 4 5 6 7 8 9 10 11 12 13 14 15 16 17 18 19 20 21 22 23 24 25 26 27 28 29 30 31 32 33 34 35 36 37 38 39 40 41 42 43 44 45 46 47 48 49 50

772
ASUS41 KCTP 220710
RWRCTP

REGIONAL WEATHER ROUNDUP
NATIONAL WEATHER SERVICE STATE COLLEGE PA
300 AM EDT SAT JUL 22 2017

Note: "fair" indicates few or no clouds below 12,000 feet with no
significant weather and/or obstructions to visibility.

* = STATION THAT DOES NOT REPORT PRECIPITATION /E.G. RAIN...SNOW...ETC/
    THUNDER OR FOG.

PAZ002>004-007>009-013>016-020>023-029>032-220800-
WESTERN PENNSYLVANIA

CITY           SKY/WX    TMP DP  RH WIND       PRES   REMARKS
ERIE           CLOUDY    67  63  87 S5        29.92F
MEADVILLE      CLOUDY    68  64  87 S6        29.97F
FRANKLIN*      CLOUDY    64  63  94 CALM      29.98F
NEW CASTLE     FAIR      70  69  97 SE3       29.96F
BEAVER COUNTY  NOT AVBL
BUTLER*        MOCLDY    72  68  88 CALM      29.96F
PITTSBURGH INT CLOUDY    74  73  97 SE3       29.95F FOG
PITTSBURGH     CLOUDY    73  69  87 S6        29.96F FOG
INDIANA*       CLOUDY    72  72 100 SW6       30.01F FOG
LATROBE        CLOUDY    73  73 100 S5        29.99F
WASHINGTON CO* CLOUDY    72  70  94 CALM      29.97F
$$

PAZ004>006-010>012-017>019-024>028-033>037-041-042-045-046-049>053-220800-
CENTRAL PENNSYLVANIA

CITY           SKY/WX    TMP DP  RH WIND       PRES   REMARKS
BRADFORD       CLOUDY    59  59 100 SE3       30.00F
DUBOIS         CLOUDY    68  65  90 CALM      29.99F FOG
CLEARFIELD     CLOUDY    67  66  97 CALM      29.99F
JOHNSTOWN      CLOUDY    70  70 100 W6        30.03F FOG
ALTOONA        MOCLDY    71  70  96 S3        29.98F FOG
STATE COLLEGE  CLOUDY    72  66  83 NW5       29.97F
WILLIAMSPORT   CLEAR     71  68  90 CALM      29.92F
SELINSGROVE    PTCLDY    70  70 100 CALM      29.93F FOG
FT INDIANTOWN  PTCLDY    78  69  76 N8        29.90F
CAPITAL CITY   CLEAR     76  72  87 W3        29.90F
HARRISBURG     PTCLDY    77  75  93 NW5       29.89S
YORK           CLEAR     71  71 100 CALM      29.91F FOG
$$

PAZ038>040-043-044-047-048-054-055-060>062-067>071-220800-
EASTERN PENNSYLVANIA

CITY           SKY/WX    TMP DP  RH WIND       PRES   REMARKS
SCRANTON       PTCLDY    71  70  96 E5        29.94F
MOUNT POCONO   CLEAR     67  66  97 N3        29.98F
ALLENTOWN      CLEAR     75  70  84 CALM      29.90S
QUAKERTOWN*    SUNNY     73  72  94 CALM      29.91S
READING        CLEAR     76  74  93 CALM      29.89S
LANCASTER      CLEAR     76  74  93 CALM      29.90S
COATESVILLE    SUNNY     73  72  94 W5        29.92F
POTTSTOWN      PTCLDY    73  72  96 CALM      29.91S
BLUE BELL      PTCLDY    72  72 100 CALM      29.90S
DOYLESTOWN     CLEAR     75  72  90 VRB3      29.89S
WILLOW GROVE   NOT AVBL
NORTH PHILA    CLOUDY    79  72  79 CALM      29.88F
PHILADELPHIA   MOCLDY    82  74  76 SW3       29.87F
$$




USA.gov is the U.S. government's official web portal to all federal, state and local government web resources and services.